Change the Weather History Date:

Friday, June 21, 2013

  Actual Average (KVPZ) Record (KVPZ)
Temperature  
Mean Temperature 76 °F 71 °F  
Max Temperature 84 °F 81 °F 93 °F (2002)
Min Temperature 68 °F 60 °F 48 °F (2003)
Degree Days  
Heating Degree Days 0 1  
Month to date heating degree days 39  
Since 1 June heating degree days 39  
Since 1 July heating degree days 6318  
Cooling Degree Days 11 7  
Month to date cooling degree days 99  
Year to date cooling degree days 146  
Since 1 June cooling degree days 99  
Growing Degree Days 26 (Base 50)    
Moisture  
Dew Point 62 °F    
Average Humidity 70    
Maximum Humidity 94    
Minimum Humidity 48    
Precipitation  
Precipitation 0.00 in 0.12 in 1.66 in (2013)
Month to date precipitation 2.64  
Year to date precipitation 15.62  
Sea Level Pressure  
Sea Level Pressure 30.11 in    
Wind  
Wind Speed 5 mph (South)    
Max Wind Speed 15 mph    
Max Gust Speed 25 mph    
Visibility 10 miles    
Events Rain    
T = Trace of Precipitation, MM = Missing Value Source: NWS Daily Summary

Daily Weather History Graph

Daily Weather History Graph

Search for Another Location

Airport or City:

Trip Planner

Search our weather history database for the weather conditions in past years. The results will help you decide how hot, cold, wet, or windy it might be!

Date:

Astronomy

Jun. 21, 2013 Rise Set
Actual Time 5:12 AM CDT 8:25 PM CDT
Civil Twilight 4:38 AM CDT 8:59 PM CDT
Nautical Twilight 3:54 AM CDT 9:43 PM CDT
Astronomical Twilight 3:01 AM CDT 10:36 PM CDT
Moon 6:34 PM CDT (6/21) 3:29 AM CDT (6/21)
Length of Visible Light 16h 20m
Length of Day
15h 12m
Waxing Gibbous, 95% of the Moon is Illuminated
Jun 21
Waxing Gibbous
Jun 23
Full
Jun 29
Last Quarter
Jul 8
New
Jul 15
First Quarter

Hourly Weather History & Observations

Time (CDT) Temp. Heat Index Dew Point Humidity Pressure Visibility Wind Dir Wind Speed Gust Speed Precip Events Conditions
12:15 AM 71.6 °F - 60.8 °F 69% 30.15 in 10.0 mi Calm Calm - N/A   Clear
12:35 AM 69.8 °F - 60.8 °F 73% 30.15 in 10.0 mi SE 3.5 mph - N/A   Clear
12:55 AM 69.8 °F - 60.8 °F 73% 30.15 in 10.0 mi Calm Calm - N/A   Clear
1:15 AM 71.6 °F - 60.8 °F 69% 30.15 in 10.0 mi South 3.5 mph - N/A   Clear
1:35 AM 71.6 °F - 60.8 °F 69% 30.15 in 10.0 mi South 4.6 mph - N/A   Clear
1:55 AM 69.8 °F - 60.8 °F 73% 30.14 in 10.0 mi South 8.1 mph - N/A   Clear
2:15 AM 69.8 °F - 60.8 °F 73% 30.14 in 10.0 mi South 4.6 mph - N/A   Clear
2:35 AM 69.8 °F - 60.8 °F 73% 30.14 in 10.0 mi South 4.6 mph - N/A   Clear
2:55 AM 69.8 °F - 59.0 °F 68% 30.13 in 10.0 mi South 4.6 mph - N/A   Clear
3:15 AM 69.8 °F - 59.0 °F 68% 30.13 in 10.0 mi South 5.8 mph - N/A   Clear
3:35 AM 69.8 °F - 59.0 °F 68% 30.13 in 10.0 mi South 5.8 mph - N/A   Clear
3:55 AM 69.8 °F - 59.0 °F 68% 30.13 in 10.0 mi South 4.6 mph - N/A   Clear
4:15 AM 69.8 °F - 59.0 °F 68% 30.13 in 10.0 mi South 5.8 mph - N/A   Clear
4:35 AM 69.8 °F - 59.0 °F 68% 30.13 in 10.0 mi South 6.9 mph - N/A   Clear
4:55 AM 69.8 °F - 59.0 °F 68% 30.14 in 10.0 mi South 4.6 mph - N/A   Clear
5:15 AM 68.0 °F - 59.0 °F 73% 30.13 in 10.0 mi South 4.6 mph - N/A   Clear
5:35 AM 68.0 °F - 59.0 °F 73% 30.14 in 10.0 mi SSW 5.8 mph - N/A   Clear
5:55 AM 68.0 °F - 59.0 °F 73% 30.14 in 10.0 mi SSW 4.6 mph - N/A   Clear
6:15 AM 69.8 °F - 59.0 °F 68% 30.15 in 10.0 mi South 8.1 mph - N/A   Clear
6:35 AM 69.8 °F - 59.0 °F 68% 30.15 in 10.0 mi South 5.8 mph - N/A   Clear
6:55 AM 71.6 °F - 59.0 °F 64% 30.17 in 10.0 mi South 6.9 mph - N/A   Clear
7:15 AM 71.6 °F - 59.0 °F 64% 30.14 in 10.0 mi South 9.2 mph - N/A   Clear
7:35 AM 73.4 °F - 59.0 °F 61% 30.13 in 10.0 mi South 8.1 mph - N/A   Clear
7:55 AM 73.4 °F - 59.0 °F 61% 30.13 in 10.0 mi South 8.1 mph - N/A   Clear
8:15 AM 75.2 °F - 60.8 °F 61% 30.14 in 10.0 mi South 9.2 mph - N/A   Clear
8:35 AM 77.0 °F - 60.8 °F 57% 30.15 in 10.0 mi South 8.1 mph - N/A   Clear
8:55 AM 77.0 °F - 60.8 °F 57% 30.15 in 10.0 mi SSW 10.4 mph - N/A   Clear
9:15 AM 78.8 °F - 60.8 °F 54% 30.14 in 10.0 mi South 11.5 mph 16.1 mph N/A   Clear
9:35 AM 78.8 °F - 60.8 °F 54% 30.15 in 10.0 mi South 8.1 mph - N/A   Clear
9:55 AM 80.6 °F 81.8 °F 62.6 °F 54% 30.15 in 10.0 mi South 5.8 mph - N/A   Clear
10:15 AM 80.6 °F 81.8 °F 62.6 °F 54% 30.14 in 10.0 mi South 8.1 mph 16.1 mph N/A   Clear
10:35 AM 82.4 °F 83.4 °F 62.6 °F 51% 30.13 in 10.0 mi South 11.5 mph - N/A   Clear
10:55 AM 82.4 °F 83.4 °F 62.6 °F 51% 30.13 in 10.0 mi South 10.4 mph 18.4 mph N/A   Clear
11:15 AM 82.4 °F 83.4 °F 62.6 °F 51% 30.13 in 10.0 mi South 11.5 mph 17.3 mph N/A   Clear
11:35 AM 82.4 °F 83.4 °F 62.6 °F 51% 30.13 in 10.0 mi SSW 9.2 mph 19.6 mph N/A   Clear
11:55 AM 84.2 °F 85.0 °F 62.6 °F 48% 30.13 in 10.0 mi South 10.4 mph 17.3 mph N/A   Clear
12:15 PM 82.4 °F 83.4 °F 62.6 °F 51% 30.13 in 10.0 mi South 6.9 mph 17.3 mph N/A   Clear
12:35 PM 82.4 °F 83.4 °F 62.6 °F 51% 30.15 in 10.0 mi SSW 6.9 mph - N/A   Clear
12:55 PM 82.4 °F 83.4 °F 62.6 °F 51% 30.15 in 10.0 mi SSW 5.8 mph - N/A   Clear
1:15 PM 82.4 °F 83.4 °F 62.6 °F 51% 30.14 in 10.0 mi South 6.9 mph - N/A   Scattered Clouds
1:35 PM 82.4 °F 83.4 °F 62.6 °F 51% 30.13 in 10.0 mi South 4.6 mph - N/A   Mostly Cloudy
1:55 PM 82.4 °F 83.4 °F 62.6 °F 51% 30.12 in 10.0 mi South 4.6 mph - N/A   Overcast
2:15 PM 80.6 °F 82.3 °F 64.4 °F 58% 30.14 in 10.0 mi North 5.8 mph - N/A   Overcast
2:35 PM 69.8 °F - 64.4 °F 83% 30.19 in 10.0 mi WNW 11.5 mph 20.7 mph N/A Rain Light Rain
2:55 PM 68.0 °F - 64.4 °F 88% 30.17 in 1.0 mi WNW 10.4 mph 19.6 mph N/A Rain Heavy Rain
3:15 PM 68.0 °F - 64.4 °F 88% 30.15 in 2.5 mi South 3.5 mph - N/A Rain Rain
3:35 PM 68.0 °F - 66.2 °F 94% 30.12 in 5.0 mi SSE 4.6 mph - N/A Rain Light Rain
3:55 PM 68.0 °F - 66.2 °F 94% 30.09 in 10.0 mi SSE 6.9 mph - N/A   Scattered Clouds
4:15 PM 69.8 °F - 64.4 °F 83% 30.04 in 10.0 mi South 10.4 mph 18.4 mph N/A   Clear
4:35 PM 69.8 °F - 64.4 °F 83% 29.96 in 10.0 mi SSE 15.0 mph 25.3 mph N/A   Clear
4:55 PM 69.8 °F - 64.4 °F 83% 29.97 in 10.0 mi ESE 5.8 mph 17.3 mph N/A   Clear
5:15 PM 71.6 °F - 62.6 °F 73% 30.00 in 10.0 mi SSE 5.8 mph - N/A   Clear
5:35 PM 71.6 °F - 64.4 °F 78% 30.02 in 10.0 mi SE 3.5 mph - N/A   Clear
5:55 PM 73.4 °F - 64.4 °F 73% 30.01 in 10.0 mi SSE 8.1 mph - N/A   Clear
6:15 PM 73.4 °F - 64.4 °F 73% 30.02 in 10.0 mi South 5.8 mph - N/A   Clear
6:35 PM 71.6 °F - 64.4 °F 78% 30.04 in 10.0 mi South 6.9 mph - N/A   Clear
6:55 PM 71.6 °F - 64.4 °F 78% 30.03 in 10.0 mi South 5.8 mph 9.2 mph N/A   Clear
7:15 PM 71.6 °F - 64.4 °F 78% 30.05 in 10.0 mi SW 8.1 mph - N/A   Clear
7:35 PM 71.6 °F - 64.4 °F 78% 30.05 in 10.0 mi WSW 6.9 mph - N/A   Clear
7:55 PM 69.8 °F - 64.4 °F 83% 30.06 in 10.0 mi WSW 5.8 mph - N/A   Clear
8:15 PM 69.8 °F - 62.6 °F 78% 30.05 in 10.0 mi South 3.5 mph - N/A   Clear
8:35 PM 68.0 °F - 62.6 °F 83% 30.05 in 10.0 mi SSW 3.5 mph - N/A   Clear
8:55 PM 68.0 °F - 62.6 °F 83% 30.05 in 10.0 mi South 3.5 mph - N/A   Clear
9:15 PM 68.0 °F - 62.6 °F 83% 30.06 in 10.0 mi SSW 4.6 mph - N/A   Clear
9:35 PM 68.0 °F - 62.6 °F 83% 30.07 in 10.0 mi SSW 5.8 mph - N/A   Clear
9:55 PM 68.0 °F - 62.6 °F 83% 30.08 in 10.0 mi SSW 4.6 mph - N/A   Clear
10:15 PM 68.0 °F - 62.6 °F 83% 30.09 in 10.0 mi SSW 4.6 mph - N/A   Clear
10:35 PM 69.8 °F - 62.6 °F 78% 30.10 in 10.0 mi South 4.6 mph - N/A   Clear
10:55 PM 69.8 °F - 62.6 °F 78% 30.09 in 10.0 mi South 3.5 mph - N/A   Mostly Cloudy
11:15 PM 69.8 °F - 62.6 °F 78% 30.09 in 10.0 mi SSW 3.5 mph - N/A   Overcast
11:35 PM 69.8 °F - 62.6 °F 78% 30.08 in 10.0 mi SSW 5.8 mph - N/A   Scattered Clouds
11:55 PM 71.6 °F - 62.6 °F 73% 30.07 in 10.0 mi South 5.8 mph - N/A   Scattered Clouds